Conditions Actuelle
Un Ciel Clair
Conditions



Pression
30.09 (inHG) - 1018.92 (mb)
Visibilité

10.0 (km) - 6.2 (miles)
   Température
23  °C
Température
3  °C
Point de Rosée
27  %
 Humidité
   Vitesse du Vent
14  km/h
8  kts
9  mph
4.0  m/s
   Direction du Vent
N
45°
E
90°
135°
S
180°
225°
O
270°
315°
 90°

De L'Est
   Données D'Aéroport
LFBU
Angoulême-Brie-Champniers Airport
Metar :LFBU 231230Z AUTO 09008KT 020V160 CAVOK 23/03 Q1019 NOSIG
23-04-2021 14:30
   Informations de métar brut
Le METAR brut est le format le plus courant au monde pour la transmission de données météorologiques d'observation. Il est hautement standardisé par l’Organisation de l’aviation civile internationale (OACI), ce qui lui permet d’être compris dans la plupart des pays du monde.
   API Information
Données fournies par
https://www.checkwx.com/weather/LFBU

Météo aéronautique fournissant des rapports météorologiques METAR, TAF, AIRMET, SIGMET et OUTLOOK
   © Info
CSS/SVG/PHP les scripts ont été développés pa weather34.com pour une utilisation dans le modèle weather34 © 2015-2021

Informations sur le guide fournies par Metar-Wikipedia